N1MCJ Weather Reports


time (UTC)temp
C
wind
direction
speed
KPH
gust
KPH
rain 1hr
cm
rain 24hr
cm
rain mn
cm
humidity
%
barometer
mb
20260506155209 16 155 3.2 4.8 0.00 0.00 0.00 83 1001.5
20260506153311 16 76 1.6 1.6 0.00 0.00 0.00 83 1001.5
20260506151810 16 38 6.4 9.7 0.00 0.00 0.00 84 1001.7
20260506150306 16 26 1.6 3.2 0.00 0.00 0.00 83 1001.3
20260506144803 16 205 3.2 4.8 0.00 0.00 0.00 83 1001.5
20260506143300 16 171 4.8 9.7 0.00 0.00 0.00 82 1001.5
20260506141759 16 166 4.8 8.0 0.00 0.00 0.00 82 1001.3
20260506140257 17 133 8.0 9.7 0.00 0.00 0.00 80 1001.5
20260506134753 16 60 3.2 4.8 0.00 0.00 0.00 82 1001.6
20260506133249 16 260 6.4 8.0 0.00 0.00 0.00 84 1001.6
20260506131747 16 67 0.0 0.0 0.00 0.00 0.00 85 1001.1
20260506130243 16 96 3.2 3.2 0.00 0.00 0.00 85 1001.3
20260506124742 16 77 3.2 4.8 0.00 0.00 0.00 86 1001.5
20260506123241 15 175 6.4 12.9 0.00 0.00 0.00 86 1001.6
20260506121739 15 258 8.0 9.7 0.00 0.00 0.00 87 1002.1
20260506120236 15 76 1.6 1.6 0.00 0.00 0.00 90 1002.0
20260506114736 15 165 4.8 8.0 0.00 0.00 0.00 89 1001.7
20260506113234 14 267 4.8 4.8 0.00 0.00 0.00 91 1001.6
20260506111731 13 271 4.8 8.0 0.00 0.00 0.00 93 1001.7
20260506110229 13 56 0.0 1.6 0.00 0.00 0.00 94 1001.5
20260506104726 13 60 1.6 3.2 0.00 0.00 0.00 95 1001.6
20260506103223 12 96 0.0 1.6 0.00 0.00 0.00 96 1001.4
20260506101721 12 72 1.6 1.6 0.00 0.00 0.00 96 1001.7
20260506100220 12 62 0.0 1.6 0.00 0.00 0.00 96 1001.7
20260506094717 12 79 1.6 1.6 0.00 0.00 0.00 96 1001.5
20260506093216 12 58 0.0 0.0 0.00 0.00 0.00 95 1001.5
20260506091715 12 101 3.2 3.2 0.00 0.00 0.00 95 1001.5
20260506090212 12 45 1.6 1.6 0.00 0.00 0.00 94 1001.6
20260506084708 12 86 3.2 3.2 0.00 0.00 0.00 94 1001.7
20260506083205 13 13 1.6 3.2 0.00 0.00 0.00 93 1001.7
20260506081700 13 163 8.0 9.7 0.00 0.00 0.00 93 1001.7
20260506080157 13 335 1.6 3.2 0.00 0.00 0.00 92 1001.8
20260506073153 13 62 1.6 1.6 0.00 0.00 0.00 91 1001.9
20260506071651 13 33 0.0 1.6 0.00 0.00 0.00 90 1002.0
20260506070148 13 239 3.2 8.0 0.00 0.00 0.00 90 1001.8
20260506061638 13 75 1.6 1.6 0.00 0.00 0.00 88 1001.7
20260506060137 14 55 1.6 1.6 0.00 0.00 0.00 87 1002.0
20260506050128 15 324 3.2 4.8 0.00 0.00 0.00 82 1001.9
20260506044625 15 224 4.8 4.8 0.00 0.00 0.00 81 1002.0
20260506043123 15 21 6.4 9.7 0.00 0.00 0.00 81 1002.3
20260506041618 16 196 9.7 14.5 0.00 0.00 0.00 80 1002.1
20260506040114 16 82 6.4 11.3 0.00 0.00 0.00 78 1002.4
20260506034611 16 64 3.2 4.8 0.00 0.00 0.00 77 1001.9
20260506033108 16 225 3.2 3.2 0.00 0.00 0.00 76 1002.1
20260506031605 16 202 11.3 14.5 0.00 0.00 0.00 75 1002.1
20260506030103 16 289 6.4 8.0 0.00 0.00 0.00 75 1002.4
20260506024559 16 227 4.8 8.0 0.00 0.00 0.00 74 1002.3
20260506023055 16 93 1.6 1.6 0.00 0.00 0.00 73 1002.3
20260506021553 16 95 3.2 4.8 0.00 0.00 0.00 72 1002.4
20260506020050 17 169 4.8 8.0 0.00 0.00 0.00 71 1001.9
20260506014548 17 18 8.0 9.7 0.00 0.00 0.00 71 1001.9
20260506013044 17 98 1.6 3.2 0.00 0.00 0.00 71 1001.9
20260506011540 17 171 3.2 3.2 0.00 0.00 0.00 70 1001.5
20260506010038 17 70 1.6 1.6 0.00 0.00 0.00 70 1001.3
20260506004534 17 9 4.8 8.0 0.00 0.00 0.00 69 1001.2
20260506003029 17 84 1.6 1.6 0.00 0.00 0.00 68 1001.0
20260506001524 17 47 1.6 3.2 0.00 0.00 0.00 67 1001.1
20260506000022 17 180 6.4 9.7 0.00 0.00 0.00 65 1000.8
20260505234519 18 105 3.2 3.2 0.00 0.00 0.00 64 1000.4
20260505233017 18 245 4.8 4.8 0.00 0.00 0.00 63 1000.5
20260505231514 18 176 8.0 9.7 0.00 0.00 0.00 63 1000.2
20260505230012 20 146 6.4 9.7 0.00 0.00 0.00 62 999.9
20260505224508 20 148 4.8 4.8 0.00 0.00 0.00 61 999.9
20260505223004 20 18 4.8 8.0 0.00 0.00 0.00 59 1000.2
20260505221459 21 250 3.2 4.8 0.00 0.00 0.00 59 1000.3
20260505215956 21 135 1.6 1.6 0.00 0.00 0.00 60 999.9
20260505214455 20 311 3.2 4.8 0.00 0.00 0.00 60 1000.0
20260505212952 22 200 3.2 8.0 0.00 0.00 0.00 59 999.9
20260505211449 22 209 9.7 14.5 0.00 0.00 0.00 57 999.8
20260505205944 21 37 0.0 1.6 0.00 0.00 0.00 58 999.8
20260505204443 21 169 4.8 8.0 0.00 0.00 0.00 59 999.7
20260505202938 22 271 4.8 9.7 0.00 0.00 0.00 56 999.9
20260505201434 22 52 3.2 3.2 0.00 0.00 0.00 57 999.8
20260505195930 22 73 4.8 8.0 0.00 0.00 0.00 57 1000.1
20260505194428 22 258 6.4 9.7 0.00 0.00 0.00 56 1000.3
20260505192924 22 190 8.0 11.3 0.00 0.00 0.00 59 1000.2
20260505191424 22 68 1.6 1.6 0.00 0.00 0.00 58 1000.7
20260505185922 23 189 3.2 3.2 0.00 0.00 0.00 57 1000.8
20260505184419 22 19 6.4 8.0 0.00 0.00 0.00 58 1001.0
20260505182915 22 140 4.8 4.8 0.00 0.00 0.00 58 1000.9
20260505181412 22 214 4.8 4.8 0.00 0.00 0.00 57 1001.1
20260505175907 23 181 4.8 4.8 0.00 0.00 0.00 57 1000.9
20260505174404 22 118 4.8 9.7 0.00 0.00 0.00 55 1001.2
20260505172859 22 131 4.8 8.0 0.00 0.00 0.00 56 1001.0
20260505171359 22 183 9.7 12.9 0.00 0.00 0.00 55 1001.4
20260505165854 22 169 4.8 8.0 0.00 0.00 0.00 57 1001.4
20260505164354 22 219 3.2 4.8 0.00 0.00 0.00 58 1001.3
20260505162850 22 263 8.0 11.3 0.00 0.00 0.00 58 1001.5
20260505161345 22 128 3.2 4.8 0.00 0.00 0.00 57 1002.2